Info for pilots

Image

Airfield Info:

EBUL
N51 08.7 - E003 28.6
ELEV 95' / 29m
RWY 07 / 25
799m * 45m (CIV) - 2980m (MIL)
Ursel Radio 135.130
Tel Aero Club Brugge : +32(0)9 374 25 75
Tel Vliegclub Ursel : +32(0)9 374 12 90

Operational Hours
FRI: 14h00LT - SS+30 MIN
SAT, SUN and HOL: TKOF and LDG: 10h00LT - SS+30 MIN
After 20h00LT to SS+30 MIN: only LDG allowed (PN)

Local Traffic Regulations
The use of the AD is subject to PPR from the OPR;
AD given in concession to the CIV club outside MIL ACT;
Solo training flights can only be performed after two reconnaissance flights with instructor. The solo training flight must be performed within six weeks after the first reconnaissance flight;
Jet aircraft operations not allowed.

Obstacles:
trees between 10M AGL and 22M AGL, caution when crosswind:
North of the RWY, 75M from CL, along the whole length of the RWY;
South of the RWY, 75M from CL, and at THR RWY 25 from THR RWY 07 to 140M east of THR RWY 07



Image

Image

Watch out!

Flight Procedures
RWY 07 and 25 left hand circuit, 1.200 FT QNH

Image

Taxi procedures:
RWY 07 (TKOF):
taxi on the north side of the RWY to the HLDG position of RWY 07

RWY 07 (LDG):
after landing roll out to the second intersection (THR RWY 25), turn left, turn left again, taxi via the TWY to the first intersection, turn left, cross the RWY (check for landing ACFT), taxi on the south side of the RWY to the AD reporting office

RWY 25 (TKOF):
taxi on the north side of the first intersection, turn left, next turn right, taxi via the TWY to the second intersection, turn right, taxi to the HLDG of RWY 25

RWY 25 (LDG):
after landing roll out to the end of the RWY, taxi on the south side of the RWY to the AD reporting office.





Image

Taxi & Circuit?

Image
Image
Image
Image

Current Metars - Auto refresh

EBOS - Oostende
2020/02/20 07:20 EBOS 200720Z 20014KT 9999 BKN041 08/05 Q1014 NOSIG


EBAW - Antwerpen
2020/02/20 07:20 EBAW 200720Z 21012KT 9999 FEW018 BKN041 09/06 Q1015 NOSIG


EBBR - Brussel
2020/02/20 07:20 EBBR 200720Z 22013KT 9999 FEW018 BKN046 08/05 Q1016 NOSIG

Source : NOAA.GOV

Current TAFs - Auto refresh

EBOS - Oostende
2020/02/20 06:27 TAF EBOS 200512Z 2006/2112 21016G27KT 9999 SCT018 BKN045 TEMPO 2013/2018 22025G40KT 4000 RA SHRA BKN014TCU BECMG 2016/2018 30023G36KT BECMG 2100/2102 27015G25KT BECMG 2104/2106 25014KT BECMG 2110/2112 24018G30KT

EBAW - Antwerpen
2020/02/20 06:30 TAF TAF EBAW 200513Z 2006/2015 22012KT 9999 SCT020 BKN045 PROB30 TEMPO 2006/2010 4500 -DZ BKN012 BECMG 2010/2012 21015G25KT PROB30 TEMPO 2014/2015 22018G35KT

EBBR - Brussel
2020/02/20 06:27 TAF TAF EBBR 200512Z 2006/2112 22012KT 9999 SCT020 BKN045 PROB30 TEMPO 2006/2009 4500 -DZ BKN012 BECMG 2009/2011 22015G25KT TEMPO 2016/2020 23020G35KT 4000 RA SHRA BKN014TCU BECMG 2018/2020 28015G25KT BECMG 2020/2022 26012KT TEMPO 2110/2112 22015G25KT

Source : NOAA.GOV
Image

Webcam

Direction runway 07 :